Theta_e
339 338 338 338 337 337 336 335 334 333 332 333 335 336 337 337 337 337 337 336 334 334 333 334 335 334 334 334 334 334 333 332 331 331 330 331 330 325 326 328 327 326 326 326 326 325 326 326 325 324 324 324 323 323 323 323 323 322 322 322 322 322 322 322 321 321 321 321 322 322 322 322 322 322 322 323 323 323 322 322 323 322 321 322 323
338 338 338 337 336 337 336 335 335 334 332 333 334 334 336 337 337 337 336 336 335 333 334 334 334 334 334 334 335 334 333 332 331 331 330 331 331 325 325 327 326 326 326 326 326 325 325 325 324 324 324 323 323 323 323 322 322 322 322 322 322 322 322 321 321 320 320 321 321 321 321 321 321 321 321 322 323 323 322 322 323 323 322 323 323
338 338 338 337 337 337 337 335 335 335 333 333 333 333 335 337 337 337 336 335 335 334 333 333 333 334 334 334 335 334 333 332 332 332 331 331 331 328 326 324 324 326 326 326 326 325 326 325 324 323 323 323 323 323 323 322 322 321 321 321 321 321 321 321 322 322 322 322 321 320 320 320 320 320 320 321 322 322 322 321 322 323 323 323 324
340 340 339 338 337 337 337 337 336 335 334 333 332 333 335 336 337 337 337 336 335 335 333 332 332 333 334 335 334 334 333 332 332 332 332 332 331 330 328 325 323 324 326 327 326 325 325 325 324 324 323 324 324 323 322 320 318 316 315 316 316 319 321 322 322 323 324 324 323 321 319 317 317 319 320 320 321 321 322 322 322 323 323 323 323
342 341 338 338 337 336 336 337 337 336 334 334 333 333 334 336 337 337 337 337 336 335 334 334 333 334 335 334 333 334 333 333 334 333 332 332 332 331 331 329 326 324 325 326 325 325 324 325 324 324 325 325 323 322 317 312 310 310 311 314 317 320 322 322 323 324 324 324 324 323 321 318 316 317 318 320 320 321 322 322 322 322 323 323 323
341 340 337 338 337 336 336 336 338 337 336 335 334 333 333 333 335 337 337 336 336 336 335 335 334 335 335 334 333 334 334 333 334 334 333 333 333 332 332 331 329 326 325 324 324 323 322 323 325 325 325 324 322 318 311 307 309 312 316 319 321 322 323 323 324 324 325 325 324 324 323 320 317 315 315 317 320 321 321 322 323 322 323 323 323
341 339 337 337 336 337 337 336 337 337 337 336 335 334 333 332 334 336 336 336 336 336 336 335 335 335 335 334 333 335 335 334 334 334 334 333 333 333 332 331 330 330 329 325 323 320 317 321 325 326 324 321 320 315 309 310 316 320 322 323 323 323 324 324 325 325 325 325 324 324 323 321 318 315 314 316 320 321 321 322 323 323 323 322 322
340 339 338 337 336 336 336 335 336 337 337 337 336 335 333 332 333 335 336 336 336 336 336 336 336 336 335 334 334 335 335 335 335 334 334 333 333 333 332 332 330 329 329 328 325 319 316 322 323 322 321 320 320 316 311 315 321 324 325 324 324 325 325 325 326 325 325 325 325 325 324 322 319 314 314 318 321 321 322 322 323 323 323 323 323
340 339 339 337 336 335 336 335 336 338 338 336 336 335 334 333 334 333 335 336 336 336 336 336 336 336 336 335 335 335 335 335 335 334 334 333 333 333 333 332 330 327 328 329 328 322 320 322 320 318 319 321 322 320 316 320 324 325 325 325 325 325 326 327 327 326 326 325 325 325 324 324 321 313 314 320 322 322 322 322 323 323 323 323 322
340 340 339 337 336 335 336 336 336 338 337 336 335 335 334 335 335 333 335 336 336 336 336 336 336 336 336 336 335 335 335 336 335 334 334 333 333 333 333 333 330 328 330 330 329 327 325 325 322 322 323 324 325 325 323 324 326 326 327 327 327 327 328 328 327 327 326 326 325 326 325 325 322 313 313 320 322 322 323 323 323 323 323 323 323
340 339 339 338 337 336 336 336 337 337 336 335 334 334 334 336 337 335 335 336 336 336 336 335 335 336 335 335 335 335 335 335 335 334 334 333 333 333 333 333 331 329 331 331 329 330 329 327 327 328 327 327 327 327 328 327 328 328 328 329 329 328 328 328 327 327 327 326 326 325 325 325 322 315 314 319 321 322 323 323 323 323 323 323 323
340 339 338 338 337 336 335 335 336 336 336 335 334 334 334 335 338 336 336 337 335 334 335 335 334 335 335 335 336 335 335 335 335 334 333 333 333 333 333 332 331 330 331 331 330 330 329 329 329 330 329 328 327 328 329 328 328 329 329 329 329 328 328 328 327 326 326 326 326 325 325 326 323 317 316 319 321 323 322 322 322 322 322 322 323
339 338 337 336 336 337 335 335 336 336 336 335 335 334 332 335 338 336 336 336 335 334 335 335 334 335 335 335 335 336 336 335 334 334 334 333 333 332 332 332 332 330 331 332 331 330 330 330 329 330 330 329 328 328 328 328 328 328 328 329 329 328 328 328 327 326 324 325 326 325 325 325 323 319 319 321 322 323 322 321 322 321 320 321 323
338 338 336 335 336 336 336 336 336 336 335 335 335 334 332 334 336 336 335 335 334 334 334 335 334 333 333 334 335 335 334 334 334 334 334 333 332 332 333 333 332 331 331 331 331 331 331 330 330 330 330 329 330 329 328 327 328 328 328 328 329 328 328 327 327 326 324 325 326 326 325 325 324 321 322 323 322 322 321 320 320 320 319 319 320
337 337 337 336 336 336 336 336 336 336 335 335 335 334 332 333 332 333 335 334 333 334 334 334 333 332 333 334 335 335 333 332 333 333 333 333 333 334 333 333 333 332 331 331 331 331 330 330 330 331 330 329 331 331 330 329 328 328 328 328 328 328 328 327 327 326 324 325 326 326 326 325 324 323 323 323 322 321 320 320 319 317 316 316 316
337 337 336 336 335 336 336 336 336 336 336 335 335 334 334 333 332 332 334 333 332 334 335 334 332 332 334 334 334 334 333 333 333 333 334 333 334 334 332 333 333 332 332 331 331 330 330 330 331 331 331 330 330 330 330 331 329 328 328 328 328 328 328 328 327 325 324 324 325 325 326 325 324 324 324 323 322 320 320 319 317 314 314 315 313
338 336 335 335 335 335 335 335 336 336 336 334 334 335 335 335 334 333 334 333 333 334 335 335 335 336 335 335 334 333 332 334 335 334 334 333 333 334 333 334 333 332 333 332 331 331 330 331 331 331 332 330 330 329 329 330 329 328 329 328 328 328 328 327 325 323 323 323 324 325 325 325 325 324 324 322 321 321 319 317 313 310 312 310 306
338 337 336 336 335 335 335 335 335 336 335 334 334 335 335 334 334 333 332 331 333 334 336 336 337 338 337 335 334 334 334 335 334 334 334 333 332 333 334 334 333 333 333 331 330 331 330 331 332 331 331 330 330 330 330 330 329 329 329 328 327 327 326 321 319 321 321 320 321 324 325 325 325 324 323 322 322 320 315 310 307 305 305 303 302
337 336 336 336 336 335 335 336 335 335 335 334 335 335 335 334 334 333 331 332 335 336 336 336 337 337 336 336 335 334 335 334 333 333 334 332 330 332 333 333 332 332 333 330 330 330 330 331 331 330 331 331 330 330 329 330 330 330 329 328 327 326 321 312 314 321 322 320 321 323 324 324 325 324 323 322 321 317 309 304 303 302 302 301 300
337 336 336 336 336 335 335 335 334 335 335 335 334 334 334 335 334 333 333 336 338 337 336 336 335 335 336 336 335 334 334 334 333 333 333 332 331 332 333 333 332 332 332 331 330 330 330 331 330 330 331 330 330 330 329 330 330 329 329 327 325 323 316 309 317 324 324 323 323 324 324 324 324 323 323 322 320 313 305 302 302 301 300 300 301
336 336 335 335 335 335 334 334 334 334 334 335 334 333 334 335 334 333 335 337 338 338 337 334 333 334 335 335 333 334 335 334 333 333 334 333 332 333 333 333 333 332 331 330 330 330 331 331 330 330 330 329 330 330 329 330 330 329 328 324 320 319 312 309 319 325 323 323 324 324 324 323 323 323 322 321 318 309 302 301 300 299 300 301 303
337 337 336 335 335 334 334 334 333 333 333 334 334 334 334 335 334 334 336 336 336 338 336 332 332 335 335 333 332 334 335 334 332 333 334 332 332 333 333 333 333 332 332 331 330 330 331 331 330 331 330 329 330 331 329 329 330 328 325 320 317 316 311 308 317 323 323 323 323 323 324 322 322 322 319 319 318 310 301 300 300 300 302 303 304
337 337 336 335 334 334 334 333 333 332 332 333 334 334 334 334 334 335 336 335 335 336 335 333 335 336 336 334 333 334 334 333 332 333 333 333 333 333 332 333 333 333 332 331 331 331 331 331 331 330 330 329 329 330 329 328 329 327 320 317 316 313 308 306 314 320 320 320 322 322 322 322 321 320 319 319 317 308 300 301 304 304 303 302 302
337 337 336 335 334 334 334 333 332 331 331 332 334 334 334 334 333 333 334 334 334 334 333 335 337 336 336 335 334 335 334 332 332 333 333 333 333 332 332 333 333 333 332 331 331 331 330 331 330 330 330 329 328 329 329 327 327 324 317 315 315 310 306 305 309 315 315 315 319 321 321 321 320 318 318 316 311 305 305 309 311 308 303 300 299
337 337 335 335 334 334 334 333 333 331 331 333 334 334 334 335 334 332 333 334 334 334 333 335 336 335 336 335 333 334 333 332 331 331 332 333 333 331 331 332 332 332 332 332 332 331 330 330 330 330 330 329 328 328 328 327 327 323 316 313 312 307 304 305 306 309 309 309 313 319 321 320 317 315 313 310 308 311 313 313 309 303 300 300 301
336 337 336 335 335 334 334 334 334 333 332 333 334 334 334 334 333 332 333 334 333 334 334 334 334 333 334 335 334 333 333 332 331 331 332 332 332 331 331 331 330 331 332 332 332 331 330 329 329 330 329 329 329 328 328 327 326 322 314 309 308 305 303 304 305 306 306 306 307 313 319 319 316 313 310 310 312 315 313 307 301 299 298 299 302
334 336 336 336 335 335 334 334 335 335 334 333 334 334 333 334 334 333 334 333 332 333 334 334 333 333 334 335 334 333 332 332 331 331 332 332 332 330 331 331 331 331 331 331 330 330 329 329 329 329 329 329 329 328 328 326 325 319 310 306 305 303 303 304 306 306 304 304 303 304 312 315 312 310 310 311 312 310 306 301 298 298 298 299 300
333 334 335 336 335 335 335 334 334 335 335 334 334 334 334 335 335 334 333 333 333 334 334 334 333 333 333 333 333 334 333 332 331 331 331 331 331 331 331 330 330 331 331 330 330 329 330 329 329 329 329 330 329 329 327 326 326 318 309 310 307 301 303 305 305 305 303 302 301 300 303 306 306 308 309 310 307 302 300 298 298 298 298 298 298
332 332 333 334 335 335 335 334 334 335 335 334 334 334 335 335 335 334 333 333 334 334 334 334 333 333 333 332 333 335 333 331 331 330 331 332 332 332 332 331 331 331 330 330 330 329 330 329 329 330 330 330 329 329 327 325 326 320 311 317 316 304 303 306 306 304 301 300 300 300 300 302 305 307 308 306 302 299 298 298 298 298 298 298 298
332 332 332 333 334 335 335 335 334 334 334 334 334 334 334 334 334 333 333 334 334 334 333 333 333 332 332 332 334 334 333 331 331 331 331 332 333 332 331 330 331 331 330 331 331 331 330 329 330 330 329 330 329 328 327 325 326 320 313 320 323 311 303 305 306 303 300 300 301 300 301 303 306 307 305 302 300 299 299 298 298 299 298 299 298
331 331 332 333 334 335 335 335 334 334 334 334 334 333 333 333 333 333 333 334 333 333 333 332 333 333 332 332 333 333 333 331 330 331 331 333 335 334 331 332 332 331 331 333 332 331 330 330 330 330 329 330 328 328 327 324 324 320 313 318 325 317 306 304 307 303 299 300 301 301 302 303 305 305 303 301 299 299 299 299 299 299 299 299 299
331 331 331 333 334 334 334 335 334 334 334 334 334 333 332 333 333 333 334 334 333 333 333 332 333 333 332 333 332 332 333 332 331 331 332 334 335 335 332 332 332 330 330 332 332 330 330 330 330 329 330 329 328 328 326 324 324 320 315 317 321 319 310 305 306 304 299 299 300 301 301 301 302 302 301 301 299 299 300 299 299 299 299 299 300
332 331 331 332 333 333 333 334 334 334 334 334 334 333 333 332 333 333 334 334 333 333 334 334 333 333 333 333 331 332 333 333 333 333 334 334 335 334 332 331 331 330 330 331 331 331 330 331 330 329 329 328 328 328 326 324 323 318 316 318 318 317 313 308 306 304 300 300 300 300 300 300 300 300 300 300 300 300 300 300 300 299 300 300 301
331 332 332 332 333 333 333 332 332 333 333 334 334 333 333 333 333 333 334 334 333 333 334 334 333 332 333 333 331 331 332 332 333 332 332 334 334 333 332 331 331 330 330 331 331 331 330 331 331 329 328 328 327 328 326 325 322 317 315 320 318 315 314 313 311 306 301 300 300 300 300 300 300 300 300 300 300 300 300 300 300 300 301 303 304
329 331 331 332 332 332 332 332 332 332 332 333 333 334 333 333 333 333 333 333 332 333 333 333 333 333 333 333 332 332 331 331 332 331 332 335 334 332 332 331 330 329 330 331 330 331 331 330 330 329 328 328 328 328 327 325 324 319 315 319 319 315 312 314 316 312 304 300 300 300 301 301 301 301 300 300 300 300 300 301 301 302 304 305 306
326 328 330 331 331 331 332 332 332 332 332 332 332 334 333 333 332 332 332 332 331 331 332 333 332 332 333 333 333 332 330 329 330 331 334 335 333 331 331 330 330 330 330 331 330 330 331 329 329 328 328 328 328 327 326 325 325 320 315 317 319 315 311 312 317 318 312 304 300 300 301 300 301 301 301 301 301 301 302 303 303 305 306 307 308
324 326 328 330 330 331 332 331 331 332 332 331 331 332 333 332 332 331 332 331 330 331 333 333 331 331 332 334 333 332 331 330 330 331 333 334 332 331 330 329 329 330 330 331 331 330 330 330 329 328 328 329 329 327 326 325 324 321 316 316 318 315 312 312 313 317 317 311 304 300 300 300 301 301 301 301 301 302 303 305 306 307 308 309 309
321 323 326 328 329 330 330 330 330 331 331 331 331 331 332 331 331 332 333 332 331 331 331 331 331 332 333 333 332 331 332 331 330 330 332 333 332 332 330 329 329 330 331 331 331 330 330 329 330 328 326 328 328 327 326 325 323 321 317 317 317 315 313 313 312 314 315 313 308 302 300 300 300 301 301 302 302 303 304 305 307 308 308 309 309
318 320 321 324 326 328 330 329 329 329 330 331 331 331 331 330 330 332 334 334 333 331 330 330 330 332 333 333 332 332 333 332 331 331 331 332 332 332 331 330 329 330 331 330 330 330 329 329 330 328 326 327 328 327 325 323 322 321 318 317 318 316 314 313 313 314 313 312 310 306 302 300 300 300 301 302 302 303 303 304 305 306 307 307 307
315 316 317 318 321 324 327 328 328 329 330 330 330 330 330 330 330 331 332 332 332 332 331 331 331 332 333 333 332 332 333 334 333 332 331 331 331 332 332 331 329 330 331 330 329 329 330 329 329 328 325 327 328 326 323 322 321 320 319 318 318 317 316 315 313 314 314 313 312 309 305 301 300 300 300 300 301 301 302 303 303 303 304 304 305
312 313 314 315 316 317 321 325 327 328 329 329 330 329 329 329 329 329 329 330 331 332 331 331 331 332 332 331 330 331 331 332 333 332 331 331 331 331 332 331 329 329 330 329 328 328 329 329 327 327 326 325 326 325 322 320 320 320 319 318 319 318 317 316 315 314 314 314 314 312 309 305 302 301 301 301 301 301 301 301 301 302 302 302 302
310 310 311 312 312 312 315 319 323 326 328 329 330 330 329 329 329 329 329 330 332 333 332 331 332 332 331 330 330 330 331 331 331 332 331 330 330 330 331 330 329 329 328 329 328 328 328 327 325 326 327 325 323 323 322 320 320 320 320 319 320 319 318 317 316 314 313 314 315 314 313 311 308 306 305 304 304 305 304 303 304 304 303 304 304
308 309 309 309 310 310 310 313 317 321 325 327 328 329 329 329 329 329 329 330 332 333 330 329 331 332 331 330 330 330 330 330 330 330 330 330 330 330 331 330 329 329 329 330 331 328 327 326 326 325 327 327 325 322 322 321 320 320 321 321 320 320 319 318 317 316 314 313 315 314 314 314 313 311 311 310 310 310 309 309 310 309 308 309 311
307 307 307 307 307 307 307 308 311 315 319 320 322 325 327 328 328 328 329 330 331 331 330 329 330 332 332 331 329 329 329 329 329 329 329 330 330 330 330 329 329 329 329 330 330 329 328 328 326 326 327 328 326 324 323 323 322 322 322 321 321 320 319 318 318 317 315 313 314 315 314 315 315 314 314 314 314 314 312 312 314 314 312 313 314
306 306 305 305 305 305 305 305 306 309 312 315 317 319 323 325 327 327 328 330 329 329 330 330 329 330 330 329 328 327 328 329 330 330 329 330 330 330 329 329 329 329 329 329 329 330 330 329 328 327 328 327 326 325 326 324 324 324 323 322 322 320 319 318 317 317 316 314 314 314 314 315 316 316 316 317 316 316 315 315 316 315 314 314 314
305 305 304 304 303 303 303 303 303 304 306 309 313 315 318 321 324 325 326 328 329 329 329 329 328 328 327 328 328 327 327 328 329 330 331 331 330 330 329 329 329 329 329 328 328 329 328 328 329 329 328 327 326 325 326 326 325 324 324 323 322 320 320 319 318 319 318 315 315 316 316 316 317 317 318 319 318 317 316 316 316 316 315 313 312
304 304 303 303 302 302 302 302 302 302 303 305 308 311 314 317 319 322 323 325 328 327 327 327 328 328 327 327 328 327 327 328 328 330 331 330 330 329 329 329 327 327 327 327 327 327 327 327 328 328 328 327 325 324 325 325 324 323 323 322 322 320 319 320 320 321 319 318 318 319 318 318 319 320 320 320 319 318 317 316 316 315 313 311 309
304 303 303 302 302 301 301 300 300 300 301 303 304 307 311 313 316 318 319 322 325 327 327 328 327 327 327 326 326 327 328 328 328 329 329 329 329 329 328 327 324 323 325 325 325 326 326 327 327 326 326 326 324 324 324 324 324 322 321 320 319 318 318 318 319 319 319 319 320 320 320 321 321 320 320 319 318 317 316 315 314 312 310 308 307
304 303 302 302 301 301 300 300 299 299 299 300 302 304 308 310 313 315 317 319 323 327 328 328 326 326 326 326 326 327 327 328 328 328 328 328 328 326 325 325 322 320 320 322 323 324 325 327 327 326 325 324 323 324 324 323 322 321 319 319 319 319 320 319 318 318 319 319 319 319 320 321 319 319 319 319 318 317 315 314 311 309 308 307 306
303 303 302 302 302 301 300 299 299 298 298 299 300 302 306 308 311 313 314 318 323 326 326 324 322 323 325 326 326 325 325 327 328 328 327 326 325 324 324 324 321 317 316 317 319 321 322 324 324 324 323 322 322 322 321 320 320 320 319 319 318 318 319 319 318 319 319 318 316 316 317 318 317 317 318 317 316 315 314 313 311 309 308 307 306
303 303 302 302 302 301 300 299 298 297 297 297 298 301 304 307 309 311 312 318 322 322 321 320 318 319 323 325 325 323 324 326 327 326 325 324 324 324 324 323 320 316 314 314 316 317 318 318 318 318 317 316 316 317 317 317 319 319 319 318 317 317 318 318 320 321 319 317 314 312 313 316 315 315 314 313 311 312 313 313 312 310 309 307 307
Wind_Speed
11 9 9 11 11 13 13 14 14 14 15 14 14 14 13 12 12 11 11 10 10 8 8 7 6 6 5 5 5 4 5 5 5 6 6 8 7 5 7 8 7 6 6 6 6 5 5 6 6 5 6 6 6 6 6 6 6 7 7 7 8 8 8 9 9 10 10 11 11 12 12 12 13 13 13 13 13 14 15 16 16 17 18 18 19
9 9 10 10 10 12 13 14 14 13 14 14 13 14 13 12 12 12 12 11 10 9 8 8 7 6 5 5 5 5 5 4 4 5 5 8 7 4 6 9 8 7 7 7 6 6 6 5 6 6 6 6 6 6 6 6 6 6 6 7 8 8 8 8 9 9 9 10 10 10 11 11 11 12 12 12 13 13 14 15 15 16 17 17 17
6 7 7 9 11 12 12 13 13 12 13 13 13 13 13 12 12 13 12 11 10 9 9 8 8 7 6 6 5 5 4 4 4 4 5 7 7 6 7 7 8 9 8 7 6 6 6 6 6 6 6 6 6 6 6 6 5 6 6 7 8 8 8 8 9 9 9 9 9 9 9 9 10 11 11 12 12 12 13 14 15 15 15 16 16
6 6 7 10 12 11 11 12 12 12 12 12 13 13 13 12 12 12 11 10 10 9 9 8 8 8 7 7 6 5 5 4 4 5 5 5 6 7 7 6 7 10 9 8 8 7 6 6 6 6 6 6 6 6 6 6 6 7 7 9 9 9 8 9 9 9 8 8 9 8 8 9 9 10 11 11 11 13 14 14 13 12 13 14 15
8 10 11 11 11 10 10 10 11 12 12 12 13 13 13 12 12 12 10 10 10 10 9 9 8 8 8 7 7 6 5 5 5 5 6 6 6 7 7 7 7 8 8 9 10 9 7 7 6 7 7 6 6 6 6 7 8 9 10 11 11 10 9 8 8 8 8 8 8 8 8 9 9 9 9 10 11 12 13 13 13 12 12 12 13
10 12 13 12 11 9 9 10 9 11 11 12 13 12 13 14 13 12 12 12 11 11 10 10 9 8 8 8 7 6 6 6 6 7 7 6 6 6 7 8 8 8 7 7 9 9 8 9 8 7 7 6 6 6 7 9 10 12 12 12 11 10 9 9 8 7 7 7 7 8 8 9 9 8 9 10 11 11 11 12 12 12 12 11 11
10 11 13 12 10 10 10 11 11 10 12 12 14 13 13 14 14 13 13 13 12 12 11 10 10 9 9 8 7 7 7 7 7 7 7 6 6 6 7 8 9 10 9 6 7 9 10 10 9 8 7 7 7 7 9 11 12 13 12 12 11 10 9 8 8 7 7 7 7 7 7 8 9 8 8 9 10 10 10 10 10 11 11 11 11
10 11 13 11 10 12 11 10 12 11 13 15 15 15 14 15 15 14 13 13 13 12 12 11 10 10 9 8 7 8 7 7 7 7 7 7 7 7 6 7 7 7 9 7 7 9 10 11 10 9 8 8 8 8 10 12 13 12 11 10 10 9 8 7 6 6 6 7 6 6 7 8 8 8 8 9 9 10 10 10 10 10 11 11 11
11 11 12 12 12 14 13 11 12 12 12 15 17 16 15 15 15 15 13 13 13 13 12 11 10 10 9 9 8 8 8 8 8 8 8 7 7 8 7 6 6 6 8 9 10 10 11 12 11 11 12 11 10 10 11 12 11 10 9 9 8 7 6 5 5 5 5 6 6 6 7 7 7 8 9 10 9 10 11 11 10 10 10 10 10
11 11 12 14 15 16 16 13 13 13 11 12 15 17 15 14 15 16 15 14 14 14 13 12 11 10 10 10 9 9 8 8 9 9 9 8 8 8 7 7 7 7 8 9 11 11 11 12 12 12 12 12 12 11 11 11 10 9 8 7 6 6 5 5 4 4 4 5 6 6 6 7 6 7 9 10 10 10 10 9 10 10 10 10 10
11 12 12 13 15 17 18 14 14 15 13 12 16 18 17 15 15 16 16 15 14 14 13 12 11 10 10 10 9 9 9 9 10 10 9 9 9 9 8 7 7 9 9 10 12 13 12 12 11 11 10 9 9 10 10 10 9 8 7 7 6 6 5 5 4 3 5 5 5 7 7 7 6 7 9 10 10 9 8 9 10 10 10 10 10
11 15 14 15 16 17 18 17 15 16 15 14 17 20 19 16 15 16 16 15 15 14 13 12 11 10 9 9 9 9 9 9 9 10 9 9 10 11 9 8 7 9 10 9 10 12 12 11 11 12 11 8 6 8 9 9 9 8 7 7 6 4 4 5 5 5 5 5 6 7 7 8 7 7 9 10 9 8 7 8 9 10 10 10 11
12 16 16 19 21 19 19 19 17 17 17 18 18 19 18 15 16 17 16 16 16 14 13 12 12 10 9 10 9 8 9 9 10 11 10 10 11 11 9 8 8 9 10 9 8 10 10 9 10 11 11 8 6 7 8 8 8 7 7 8 6 5 5 6 7 6 6 7 7 7 9 9 8 8 9 10 9 7 7 8 8 9 9 10 10
13 16 17 20 22 21 20 20 19 18 20 20 18 18 17 16 17 18 17 17 16 14 14 13 12 12 10 9 8 8 9 11 11 11 11 11 12 10 9 9 8 8 10 10 9 9 9 8 8 8 8 7 7 7 8 8 8 7 8 8 7 6 7 8 8 7 6 7 8 8 10 10 9 8 9 9 8 7 7 7 8 7 7 8 8
12 14 17 19 20 21 22 21 21 20 21 22 19 18 18 17 18 19 17 17 17 15 17 16 14 12 9 7 6 6 7 10 12 13 13 13 11 11 12 10 8 8 9 9 9 10 9 9 8 7 6 6 8 9 9 8 8 8 9 8 8 9 9 10 9 7 7 8 8 9 11 11 10 9 8 8 8 7 7 6 6 5 5 6 6
13 15 17 19 18 20 22 22 22 21 22 23 21 20 19 17 19 22 18 17 18 16 17 18 16 12 8 5 4 4 5 7 11 12 13 13 12 13 14 11 10 10 9 9 10 10 9 8 8 8 7 6 7 9 9 9 8 9 9 10 11 11 11 11 8 7 8 8 8 9 11 12 11 9 8 8 7 6 6 5 5 5 5 6 6
15 16 18 21 21 20 22 23 22 21 22 24 23 21 20 18 20 25 23 20 18 15 14 17 15 12 9 6 3 3 4 5 9 10 12 15 14 14 13 12 13 12 10 10 10 10 9 9 8 8 8 7 7 7 9 9 9 10 11 12 13 13 12 10 8 8 9 9 9 10 12 12 11 10 9 8 7 5 5 4 4 4 5 6 6
16 16 17 20 22 22 21 22 22 22 23 25 24 21 21 21 22 25 27 25 19 14 14 14 13 12 12 9 5 3 2 5 6 5 9 13 14 15 14 14 15 13 11 12 12 10 10 10 10 10 9 8 8 8 9 10 11 11 12 14 15 14 11 9 8 9 9 8 10 11 12 12 12 11 9 8 6 4 4 4 5 5 5 6 6
15 16 16 18 20 22 22 23 24 23 24 26 26 25 23 23 23 24 26 23 17 14 14 13 12 12 13 12 10 6 3 6 5 3 5 9 13 16 15 14 15 14 13 12 12 11 11 11 11 11 9 8 9 9 9 11 12 12 14 16 16 13 10 8 9 9 8 8 10 12 12 12 11 10 9 8 6 4 4 5 5 5 6 6 7
15 16 17 17 19 22 23 24 24 24 25 27 29 29 26 24 24 24 21 17 14 13 13 14 14 13 14 14 12 10 8 8 9 7 5 6 9 12 13 13 13 14 14 13 13 12 11 11 11 11 9 10 10 10 10 13 14 14 15 16 14 11 9 10 12 10 9 9 11 12 13 12 10 9 8 7 5 4 5 6 6 6 6 7 7
15 16 18 17 18 21 22 23 24 26 29 28 29 30 27 24 25 24 20 15 14 14 13 16 18 14 14 16 14 13 12 11 13 12 8 6 6 8 10 12 11 13 15 14 13 13 12 12 11 10 9 10 11 10 12 15 15 16 16 15 12 10 9 11 14 13 12 11 12 13 13 11 10 9 8 7 5 4 5 6 6 6 7 7 7
13 14 16 16 17 19 19 22 24 26 27 26 28 30 28 26 25 23 21 18 15 15 15 17 18 14 14 16 16 14 11 10 13 14 10 7 6 6 10 12 10 12 15 16 15 14 13 13 11 10 10 11 12 11 13 16 16 16 16 14 12 11 10 12 15 15 14 13 12 13 12 11 11 9 8 7 6 5 5 6 6 6 6 7 7
12 12 12 13 15 16 17 19 21 21 21 25 29 29 27 27 26 22 20 21 20 19 19 16 15 14 14 17 17 14 12 11 13 14 11 8 6 5 9 13 12 12 14 17 17 15 14 14 12 11 11 11 12 13 13 15 17 16 15 14 12 11 11 12 16 16 15 15 13 13 13 12 11 10 8 8 7 6 5 6 6 6 6 6 6
11 11 11 12 13 14 14 16 19 19 20 25 30 30 27 27 28 26 21 22 23 23 22 18 15 14 14 17 18 14 14 16 13 12 13 10 7 6 8 12 10 10 14 18 17 16 15 14 14 13 12 11 13 14 14 16 18 17 14 14 14 12 12 13 15 15 15 15 15 14 13 12 11 10 10 9 8 7 7 7 7 6 6 6 6
11 11 12 11 11 13 13 14 17 19 21 24 27 30 29 26 28 28 24 22 25 24 22 20 19 18 15 16 19 16 16 18 15 13 14 10 8 7 10 13 10 9 13 16 15 15 15 15 15 15 13 12 13 15 15 15 16 16 14 14 14 14 14 14 15 15 14 14 15 15 14 13 11 10 10 9 9 8 9 8 8 8 8 8 7
11 11 12 11 11 13 13 13 14 17 21 25 26 29 30 26 26 27 24 22 24 25 23 22 21 22 17 14 17 20 19 19 17 16 15 11 11 10 8 10 10 10 11 13 14 14 15 16 16 15 14 13 13 15 15 14 14 15 15 15 15 15 16 16 15 14 14 14 15 15 15 13 12 10 10 10 11 11 9 8 8 8 9 9 9
13 12 11 11 12 13 13 14 14 15 20 24 27 28 26 23 23 25 24 22 22 22 23 22 20 22 21 17 17 19 20 19 18 17 16 14 13 12 9 7 7 9 9 12 16 17 16 16 16 16 15 15 14 14 14 14 13 14 15 15 16 17 17 17 15 14 14 14 15 15 16 15 13 12 12 12 12 11 9 8 8 8 9 9 9
16 15 13 12 12 12 13 15 15 15 18 23 25 24 22 22 21 24 25 22 19 20 21 22 21 22 24 22 19 17 19 20 19 19 18 15 13 11 10 10 8 7 7 8 11 14 16 16 15 16 16 16 15 14 15 15 14 14 15 15 16 18 18 17 16 15 15 15 15 15 16 15 14 13 13 13 12 10 9 9 9 9 9 9 8
16 17 16 14 12 12 13 14 15 16 18 21 23 21 21 22 23 25 25 21 20 20 20 21 22 22 21 22 20 18 21 23 20 19 18 13 12 11 10 12 11 7 6 7 7 10 15 17 15 16 17 17 17 16 15 16 15 14 15 14 15 17 19 18 16 16 15 15 15 15 15 15 15 14 13 12 11 10 9 9 10 10 10 9 9
17 16 17 16 13 12 14 15 15 17 18 20 21 22 23 23 23 24 24 22 21 18 18 20 22 21 21 22 21 19 22 24 20 21 20 15 12 11 11 14 13 10 7 6 7 10 15 17 15 15 17 18 19 17 16 17 16 14 15 15 14 16 18 17 16 16 16 15 15 15 15 15 15 14 13 12 11 11 10 10 10 10 10 10 10
19 18 18 17 14 13 15 15 16 17 18 19 21 23 24 23 23 22 21 21 20 18 20 21 21 23 23 24 24 22 21 23 21 21 22 18 13 13 14 14 12 12 11 5 4 9 12 14 15 15 16 18 19 17 15 17 16 14 15 16 15 15 16 16 16 16 17 17 16 16 16 16 15 14 13 12 12 12 11 11 11 11 11 11 11
18 20 20 18 16 15 16 16 16 17 18 19 21 24 24 23 23 23 20 20 20 19 21 21 21 23 23 24 26 23 21 22 22 21 21 18 15 15 16 14 13 14 14 7 4 6 9 11 14 16 16 17 19 17 16 16 16 15 15 15 16 16 16 16 16 17 18 18 17 17 16 16 16 15 14 13 12 12 12 12 13 12 12 12 12
17 20 20 18 16 16 17 17 17 17 17 18 20 23 24 24 24 23 21 20 20 18 18 20 22 24 24 25 24 22 22 22 21 21 20 18 16 17 18 17 15 16 17 15 9 8 10 10 12 16 19 19 19 19 18 17 17 18 16 16 17 17 15 16 17 17 19 19 19 19 18 17 17 16 15 14 13 13 13 13 13 13 13 13 13
19 20 20 18 17 17 18 19 19 18 18 19 19 22 24 26 25 23 21 21 22 20 18 20 24 24 25 25 25 24 24 23 22 21 21 19 18 19 19 18 18 18 19 16 11 9 10 11 13 15 19 21 20 19 20 19 18 19 18 17 17 17 16 16 17 18 20 21 20 20 19 18 18 17 16 15 14 14 14 15 15 15 15 14 14
21 22 21 19 18 18 20 21 20 20 20 20 20 20 22 25 26 24 22 22 24 25 23 23 24 23 22 24 27 28 26 26 26 23 20 19 19 19 18 19 21 21 19 15 12 11 11 13 16 17 18 21 20 19 20 19 17 18 19 17 16 17 17 17 17 17 18 20 21 20 19 19 18 17 17 16 16 16 16 16 16 16 16 16 15
21 22 23 21 19 20 23 22 19 20 21 21 22 22 22 24 25 24 24 24 25 26 26 25 25 24 23 23 24 26 26 27 28 24 19 19 21 22 21 22 23 22 19 16 15 15 14 14 16 18 18 20 20 20 20 20 18 18 18 18 16 17 17 17 17 16 16 18 20 21 20 19 19 18 18 18 18 18 18 18 18 17 17 17 17
22 22 23 22 20 20 22 22 20 19 20 22 23 23 25 26 25 24 24 24 24 24 25 26 26 25 24 24 25 26 26 25 25 24 22 20 20 21 21 24 25 23 19 17 17 17 16 15 16 17 17 18 19 20 21 20 19 17 17 18 17 17 17 16 15 16 15 14 17 20 20 19 19 19 18 18 18 19 19 19 19 19 18 18 18
23 23 23 22 22 22 22 22 20 20 20 22 22 22 24 25 24 22 21 21 22 23 24 26 26 24 22 23 25 27 26 24 25 26 24 21 19 19 21 26 26 21 16 14 16 17 16 16 16 16 17 18 18 19 20 21 19 17 17 18 17 17 17 16 14 14 15 15 15 19 21 21 21 20 20 20 19 19 20 19 19 20 20 20 20
23 24 24 24 23 23 23 23 21 20 20 21 21 21 22 23 22 20 18 19 22 23 23 24 24 22 21 22 22 23 23 22 23 24 21 19 19 18 20 23 19 16 15 15 16 17 17 17 17 17 17 17 17 17 19 21 20 18 17 17 17 17 17 17 15 14 15 17 17 17 20 21 22 21 21 20 20 20 20 21 20 20 20 20 20
23 24 25 26 25 24 23 23 22 21 21 22 22 21 22 24 24 21 20 20 23 24 23 23 22 21 24 25 24 24 24 20 19 21 20 19 18 17 17 17 13 9 11 13 14 15 17 17 15 15 16 16 16 17 20 21 20 19 18 17 16 16 16 16 17 15 14 16 16 17 19 20 20 21 20 20 21 21 21 21 21 21 21 21 20
23 24 25 25 26 26 25 23 21 21 22 24 22 21 22 23 23 24 24 22 21 22 22 22 21 20 24 26 25 26 26 23 21 24 24 22 21 17 15 15 15 11 7 8 11 14 14 12 11 13 14 16 18 19 20 20 19 18 18 17 16 15 15 16 16 16 16 15 15 16 18 20 20 21 21 22 22 22 22 22 22 21 21 20 20
24 24 25 25 26 27 26 24 22 22 22 22 22 21 22 23 23 24 23 19 18 20 20 20 19 19 22 24 25 26 25 24 25 26 25 24 23 20 16 16 18 15 11 10 12 12 9 5 9 11 10 11 18 20 19 19 18 18 18 17 16 15 16 15 14 16 17 16 15 16 17 18 19 19 19 21 21 20 21 21 19 18 19 18 17
25 24 24 25 25 26 26 25 24 24 22 21 23 25 24 23 22 23 21 18 21 23 23 22 19 18 21 22 23 23 22 23 26 27 24 22 22 23 20 17 18 17 14 13 12 11 7 3 8 13 9 9 13 18 18 17 18 18 18 16 16 16 16 15 13 14 18 18 16 15 16 18 18 16 17 19 20 19 19 18 15 14 14 12 10
26 25 25 25 25 25 25 26 25 24 24 22 20 22 23 24 23 23 22 21 23 24 23 22 20 18 19 19 19 20 21 24 28 27 26 24 22 23 20 16 16 17 17 15 12 11 11 7 10 16 15 11 12 15 16 18 18 18 17 16 16 16 16 15 13 13 18 20 17 13 14 16 17 16 14 13 15 19 19 16 14 13 11 8 6
25 25 25 25 25 25 26 27 27 25 24 23 22 19 18 21 22 23 24 24 23 22 22 22 21 20 19 17 18 21 22 25 27 26 26 25 23 22 20 17 16 16 16 16 13 12 12 10 10 14 16 16 17 15 13 15 17 17 17 17 16 16 16 15 13 13 18 22 18 13 14 15 15 15 12 7 13 18 18 14 12 10 7 5 4
25 25 25 25 25 25 26 27 27 27 26 25 26 24 20 18 18 20 23 25 23 22 23 24 23 24 23 20 21 23 23 26 26 23 21 22 22 21 20 17 14 13 13 13 12 11 10 10 10 11 12 15 19 16 11 11 12 14 16 16 16 16 13 9 7 9 16 19 16 13 13 13 14 15 12 10 13 14 14 10 8 6 4 4 3
25 24 24 25 25 25 26 27 27 29 28 28 28 27 24 23 20 19 20 22 22 22 23 24 25 25 24 21 21 23 23 24 24 21 17 17 18 19 18 15 11 11 12 12 11 11 11 12 12 10 10 12 17 19 15 12 11 12 13 14 15 14 10 7 9 11 12 10 8 8 9 9 9 9 8 10 12 11 11 8 5 4 3 2 1
25 24 24 25 25 25 26 27 28 30 30 30 30 29 27 25 23 23 21 21 22 24 23 22 22 23 22 20 21 21 20 19 20 20 19 16 15 16 16 13 10 10 12 13 13 12 12 14 14 12 12 13 16 19 18 14 11 12 13 14 14 15 12 10 10 10 9 7 6 6 5 5 6 6 4 10 14 12 9 7 5 4 2 2 2
25 25 24 25 25 25 25 27 28 30 31 30 30 30 28 25 23 23 21 20 22 24 23 19 15 15 16 18 20 19 15 15 17 19 20 18 17 17 16 14 11 8 9 11 12 12 11 12 14 15 15 15 15 17 18 16 12 11 12 13 12 12 11 9 8 7 7 7 8 8 3 1 5 7 6 8 12 11 11 10 7 6 4 5 6
25 25 25 25 25 24 24 26 27 29 31 31 30 30 27 24 21 19 18 19 21 21 18 13 9 12 13 14 18 19 15 14 18 20 19 18 15 15 16 16 12 9 8 10 12 12 12 13 15 16 16 15 15 16 16 15 14 12 11 12 13 13 10 8 9 9 8 6 6 7 4 2 4 5 4 3 6 9 14 13 7 3 2 5 8
23 25 25 25 25 25 24 25 27 29 31 31 31 30 26 22 18 16 14 14 14 13 13 12 10 12 13 13 16 19 18 17 19 21 19 15 11 11 14 15 13 11 12 12 13 14 13 13 13 13 11 10 10 12 12 13 14 12 9 9 11 11 10 9 10 10 7 5 5 6 3 1 2 2 1 3 5 7 13 13 7 5 4 3 6
Wind_Direction
211 214 209 208 196 187 180 177 186 187 190 195 190 193 195 195 195 198 201 196 189 181 168 163 163 160 155 144 138 139 132 134 141 138 133 132 138 147 144 148 152 143 137 139 138 137 129 125 128 122 124 128 120 117 118 113 108 107 106 105 102 99 98 97 95 94 90 89 86 84 83 81 80 80 79 75 73 72 74 74 68 68 74 73 68
218 219 209 216 211 196 188 185 191 190 191 195 194 198 199 197 199 200 200 197 191 183 174 171 170 166 163 154 148 151 148 148 145 134 136 138 132 137 161 165 162 153 150 152 145 142 144 138 135 137 141 137 129 128 124 121 120 117 114 112 112 111 107 100 97 94 91 91 89 89 86 83 82 83 84 80 76 75 77 80 75 72 76 75 70
228 232 215 222 224 210 199 193 194 191 190 197 198 199 201 201 200 201 202 201 191 184 185 181 176 171 171 165 160 166 161 158 149 139 146 146 139 147 169 177 172 168 161 154 148 151 153 146 145 149 147 141 138 136 131 129 128 127 125 125 125 121 111 103 100 95 90 89 87 89 89 87 86 85 87 85 81 79 78 83 84 77 77 77 75
211 225 222 228 231 225 214 199 195 193 192 200 204 200 201 203 202 204 206 203 193 188 192 188 183 178 173 169 173 180 168 166 161 150 156 156 157 161 166 176 179 178 170 158 154 158 163 159 156 155 149 146 145 142 143 145 139 137 136 134 129 123 119 112 107 100 93 87 81 82 84 86 87 87 88 86 89 89 83 83 87 83 81 82 80
203 211 212 223 231 232 234 221 200 196 197 200 205 202 202 205 203 203 203 201 196 193 195 191 188 178 172 176 183 184 174 174 169 162 165 167 171 172 171 174 176 179 177 173 171 169 167 163 157 156 155 153 152 148 149 147 141 140 136 132 128 124 123 118 113 107 99 91 83 80 79 82 86 89 91 91 94 98 93 86 87 86 82 83 82
211 216 216 221 227 229 244 249 223 200 199 201 205 206 204 205 205 201 197 200 201 197 197 194 190 180 175 186 188 180 181 181 173 172 174 173 175 177 181 177 172 176 177 182 188 193 186 170 161 163 164 159 156 154 149 143 140 139 136 132 128 126 125 121 119 113 107 101 90 85 81 80 82 86 94 97 95 98 103 93 88 88 83 82 83
219 223 226 228 231 235 234 244 245 219 204 203 205 210 211 208 207 202 197 201 203 199 201 197 191 185 181 189 187 180 191 188 177 180 179 180 181 184 191 183 180 181 176 175 191 203 193 174 169 170 168 160 154 150 147 145 142 139 136 133 130 131 129 124 120 116 115 111 99 91 87 81 77 82 92 95 93 96 105 99 91 91 87 86 88
227 225 228 226 228 241 238 236 252 241 214 207 206 210 215 212 209 205 201 202 203 202 202 199 192 186 183 187 189 187 192 187 185 188 183 184 186 189 195 188 186 180 171 168 174 187 178 165 170 167 156 150 146 146 146 146 145 142 138 138 140 142 138 133 130 125 122 120 114 99 93 87 74 76 90 96 98 99 102 100 95 94 90 89 92
229 227 231 231 226 238 243 233 244 251 231 216 211 213 216 214 212 209 206 205 206 204 201 199 195 188 185 188 191 191 193 190 189 191 189 193 193 189 193 192 187 173 166 161 162 176 170 156 159 155 147 143 142 144 147 149 150 148 146 145 150 154 150 151 151 145 137 133 135 118 103 100 79 78 97 104 103 99 97 97 97 93 86 89 96
230 232 231 230 226 229 236 231 230 240 246 235 223 221 221 215 212 209 209 208 207 206 203 200 196 191 189 192 193 191 193 195 193 197 197 196 196 193 188 188 184 172 169 165 161 167 165 154 153 153 150 148 149 152 156 159 162 164 166 166 174 185 182 179 176 162 156 148 147 139 123 115 99 92 105 110 106 98 95 97 98 91 83 85 97
232 239 232 227 226 225 230 232 227 225 232 242 237 230 225 217 212 209 207 209 207 206 206 203 200 199 194 194 194 190 193 200 199 206 206 193 194 197 188 186 186 175 174 179 172 168 168 165 164 167 166 164 166 170 173 176 183 190 189 188 200 212 198 180 175 160 156 157 157 156 149 134 118 108 111 114 110 100 98 103 101 94 87 82 90
234 240 240 244 241 234 234 233 229 222 217 225 234 233 227 219 213 211 209 208 208 207 207 205 203 201 196 194 194 193 199 207 206 210 211 199 200 205 194 186 187 177 178 186 179 175 177 178 182 186 183 178 189 193 190 193 201 204 196 192 199 199 179 168 161 155 154 157 164 170 164 148 135 123 114 114 112 106 107 109 104 96 91 85 86
240 245 248 252 249 243 240 237 235 231 223 219 225 231 232 227 216 213 215 212 208 204 203 204 203 199 192 193 197 198 203 211 215 216 213 207 207 209 197 190 188 180 183 189 184 182 184 188 195 195 187 181 196 207 202 202 206 206 199 194 188 183 180 168 158 163 165 158 164 173 167 157 148 134 116 114 118 116 116 112 105 98 95 94 92
249 252 252 249 245 241 240 240 238 234 231 226 225 228 228 229 222 216 219 218 212 204 200 201 205 204 197 195 194 198 212 220 222 219 215 216 212 204 195 193 192 187 191 193 190 192 189 194 201 195 191 185 183 197 201 200 202 199 200 196 186 186 178 164 160 168 166 155 161 169 165 163 157 142 121 120 127 126 123 114 102 97 95 99 101
249 249 253 249 240 237 237 237 236 232 233 230 228 229 224 225 227 222 219 221 218 208 201 203 209 208 199 198 192 194 219 226 225 221 215 218 215 202 199 195 190 195 200 197 197 200 194 193 195 192 205 198 182 191 193 190 196 193 194 192 183 180 169 162 165 169 162 155 159 163 163 166 162 146 130 131 136 131 124 111 97 90 95 106 108
244 241 251 252 243 239 236 237 235 231 232 231 229 228 220 217 226 226 220 219 219 210 203 207 214 213 199 193 183 199 224 212 212 217 212 214 215 206 203 195 190 199 205 204 203 201 194 190 188 188 201 201 189 195 191 183 190 189 185 182 175 169 162 164 169 168 164 159 156 157 162 166 159 146 143 146 143 129 114 98 86 85 101 113 112
245 241 244 248 247 244 240 238 235 230 231 232 231 229 219 210 219 226 223 219 215 205 200 207 215 217 207 197 174 206 230 190 189 207 208 211 212 206 204 197 194 199 204 208 207 198 195 191 188 188 190 195 193 193 189 179 178 180 179 177 169 160 160 166 172 168 164 162 159 157 160 163 158 154 159 157 143 123 108 99 96 100 111 115 110
249 245 242 244 248 248 243 238 236 231 229 229 228 227 220 213 215 222 222 220 216 202 195 202 211 217 213 216 226 223 192 160 171 201 204 209 213 205 201 198 197 197 201 211 209 197 197 196 192 191 185 188 193 188 180 170 171 176 175 172 163 158 164 172 170 165 162 163 161 157 157 160 163 165 165 159 147 131 120 118 122 127 126 119 114
252 249 244 244 248 248 243 240 239 235 229 227 227 224 221 217 214 218 219 216 213 201 192 194 202 214 217 223 235 232 184 172 186 185 185 208 216 207 197 194 198 201 202 212 211 198 200 203 192 188 183 179 193 197 179 164 168 173 170 169 164 163 171 167 155 152 153 157 157 156 158 163 170 170 166 163 160 149 139 136 138 141 135 125 119
252 252 250 244 245 246 244 243 241 238 233 228 228 226 224 220 217 225 225 214 209 205 192 188 196 210 216 221 229 227 214 216 222 214 197 201 204 200 195 190 196 204 203 210 213 198 197 206 195 187 185 180 193 203 181 164 166 170 169 170 169 168 171 155 145 145 150 151 151 155 163 169 173 172 170 171 169 157 149 148 148 147 141 130 123
253 255 256 247 244 245 245 244 241 240 237 229 226 226 225 221 219 226 227 214 212 213 197 193 201 209 211 216 227 229 223 230 236 232 226 212 194 191 188 186 194 205 203 208 214 202 196 206 201 191 185 181 187 184 169 163 163 167 171 172 170 169 168 156 150 151 154 153 153 157 167 174 171 170 173 170 164 158 152 152 152 150 144 135 131
258 257 259 252 248 244 240 242 240 240 236 225 222 224 222 220 218 221 223 217 214 216 210 205 206 204 202 208 218 224 223 230 236 233 228 215 202 188 182 183 190 200 202 204 208 204 199 202 199 193 190 185 180 167 162 164 161 165 171 171 170 169 168 164 161 161 160 158 159 160 165 168 166 171 174 166 161 160 157 154 149 146 144 139 138
260 259 260 253 250 244 239 243 242 243 239 222 219 223 222 221 218 216 219 219 219 219 218 214 206 202 205 209 213 216 216 222 229 228 225 210 192 191 192 191 190 194 201 203 204 203 199 197 195 194 194 187 178 168 164 164 165 170 172 168 170 172 171 171 172 171 166 162 162 162 162 163 167 172 170 167 168 166 158 152 148 146 145 142 142
257 260 259 252 249 245 242 243 239 241 238 221 218 221 222 221 220 217 216 216 220 221 219 216 209 206 211 215 217 217 216 225 232 229 230 220 200 199 191 189 193 195 197 198 202 205 199 196 196 191 191 187 178 171 161 159 170 176 170 168 172 174 175 176 177 179 175 170 166 163 163 167 172 172 171 175 176 163 154 152 154 154 146 141 140
256 260 261 254 248 244 241 238 234 235 229 217 215 218 219 220 220 219 215 212 217 220 218 217 213 210 215 220 222 222 223 232 237 229 227 224 219 214 186 184 193 191 194 194 197 205 202 199 198 190 189 187 179 174 165 164 178 183 175 173 176 176 179 180 179 181 182 180 174 168 168 175 178 178 176 176 168 159 160 164 165 160 150 143 138
266 259 258 255 247 244 241 236 231 230 225 218 215 217 219 219 218 216 213 211 214 216 217 219 217 215 217 221 224 224 227 233 234 225 219 212 216 217 193 189 189 176 188 194 192 200 200 198 200 191 187 188 182 176 171 170 182 189 185 182 179 180 182 181 183 185 185 188 184 177 177 182 184 180 176 171 167 168 170 171 167 161 155 150 145
279 269 256 250 247 244 242 238 232 228 225 221 219 220 220 218 214 213 212 212 213 212 213 214 214 215 217 221 226 228 229 232 234 230 221 212 213 213 199 196 186 174 189 195 194 200 195 191 196 191 185 188 185 178 175 177 184 190 190 186 182 183 183 183 186 189 189 191 191 188 186 189 188 181 177 174 173 174 173 171 167 163 161 157 154
279 279 270 255 247 245 244 241 236 230 227 225 224 224 223 219 214 213 214 212 208 208 210 210 213 218 221 222 225 231 229 226 232 235 227 217 214 214 208 204 197 189 194 195 198 201 193 189 192 192 187 185 183 180 178 183 190 190 185 182 185 186 184 186 190 191 192 191 191 193 192 192 190 184 179 177 174 172 171 173 172 169 168 165 163
277 279 281 270 252 244 244 243 237 231 228 229 228 227 225 222 218 216 213 208 207 210 211 211 215 219 222 222 224 229 230 225 227 234 231 223 219 215 212 213 211 204 200 201 203 199 193 191 191 191 188 184 183 179 178 187 196 191 178 177 190 193 187 188 192 191 191 189 189 194 193 191 188 182 179 177 174 174 175 177 178 178 178 175 173
285 281 283 278 265 252 246 242 237 233 231 231 232 230 227 224 224 222 215 210 210 210 208 207 211 217 220 224 227 229 229 224 222 225 224 225 225 212 211 220 219 215 216 209 201 200 195 193 193 192 188 185 184 181 180 187 195 191 179 178 192 199 192 190 194 192 189 187 187 190 190 188 185 182 181 181 180 181 183 184 186 186 185 183 183
290 283 276 271 268 262 253 245 240 236 232 231 234 234 230 227 229 227 220 214 210 207 208 206 206 211 215 220 227 228 225 220 221 222 218 216 218 209 209 215 214 221 232 238 215 207 198 189 188 189 191 187 182 183 183 182 189 194 186 184 193 198 194 192 195 195 190 187 187 188 189 187 186 187 189 189 189 190 191 193 193 192 192 191 191
285 279 272 268 268 267 261 253 245 243 238 231 232 235 234 230 228 227 222 215 209 208 211 208 205 208 210 216 224 226 222 218 219 221 218 215 216 214 211 208 210 221 223 223 234 216 200 193 186 183 190 188 181 185 184 177 190 199 188 188 197 196 195 196 198 197 194 191 190 191 192 190 192 195 196 198 198 198 199 200 200 199 198 197 197
288 282 278 275 273 271 268 263 256 251 245 237 231 230 231 230 227 227 224 215 210 211 210 208 208 209 211 214 220 223 222 218 217 218 217 216 215 215 216 213 216 224 218 211 214 204 191 198 196 186 185 186 185 189 185 174 183 192 185 187 195 193 193 198 201 201 199 196 195 195 196 196 196 198 201 203 204 205 206 206 206 204 204 204 204
301 294 287 281 276 274 274 273 269 261 252 245 238 229 227 228 228 228 225 217 214 213 210 210 211 210 209 211 215 220 222 220 221 221 215 212 212 213 217 217 219 230 227 213 204 198 183 181 197 197 185 184 189 192 186 176 175 184 186 184 188 190 189 193 202 206 203 201 199 199 200 200 200 201 203 206 207 209 210 210 210 209 209 210 211
305 300 295 289 282 278 273 269 268 266 260 254 246 236 229 227 226 226 225 220 217 213 212 212 211 208 205 207 212 216 219 222 224 222 215 211 209 209 215 217 219 229 231 212 191 196 193 182 193 200 187 183 191 193 189 183 177 183 191 187 185 191 190 189 198 207 208 205 203 203 204 204 204 204 205 208 210 212 213 213 213 212 213 215 217
305 300 298 296 291 283 275 270 268 266 265 262 254 244 238 233 228 225 222 220 220 218 214 212 211 209 208 207 208 211 217 222 220 219 216 211 208 210 214 216 219 225 226 211 192 190 195 194 196 200 193 188 192 195 191 189 184 186 194 193 188 191 193 192 197 204 210 209 207 207 207 207 208 208 209 212 213 215 215 216 216 215 216 220 223
313 306 301 299 295 287 278 275 276 273 270 269 261 249 243 241 235 228 222 219 222 221 217 215 215 213 210 210 209 208 211 217 217 217 217 213 210 212 214 219 222 222 217 209 199 193 195 200 201 200 196 191 192 196 194 190 187 188 194 197 193 192 192 193 198 202 203 204 207 210 211 211 212 213 214 216 217 219 220 220 220 221 221 225 229
322 317 311 305 299 293 288 284 283 279 273 273 267 255 250 248 241 234 226 221 224 224 222 223 222 216 210 211 213 211 209 213 218 218 216 212 211 211 215 221 222 215 209 209 206 201 199 202 203 201 197 192 192 197 197 191 188 192 195 194 194 194 192 192 193 192 195 201 206 211 213 214 214 215 216 218 220 222 224 224 225 226 228 231 235
328 327 324 319 311 303 298 295 292 283 275 271 266 260 256 253 247 242 234 226 227 229 226 224 220 213 209 207 209 210 210 212 216 215 214 215 217 218 222 226 221 204 201 209 210 208 204 201 203 207 201 192 188 194 197 191 187 194 197 193 193 193 190 191 190 185 195 209 215 219 220 220 220 221 221 222 225 226 227 229 230 232 235 238 241
333 333 332 331 327 319 310 304 297 284 275 272 269 262 256 253 250 248 242 233 232 232 230 227 222 217 215 214 213 214 214 213 212 210 213 213 215 224 229 231 228 203 198 214 219 218 212 197 195 209 203 185 182 195 202 196 190 196 199 195 194 192 188 191 196 191 189 199 209 217 221 222 224 227 228 228 230 231 232 233 235 237 240 243 247
337 337 337 338 336 332 326 318 306 288 277 275 275 267 260 256 253 249 245 240 235 232 229 228 223 218 219 219 217 216 214 212 212 214 216 212 212 225 231 224 223 212 197 220 232 235 230 201 185 206 207 186 182 196 206 202 196 198 197 192 194 194 189 191 200 202 195 191 196 205 213 218 221 224 228 230 232 232 234 235 237 240 244 248 253
341 341 341 342 342 339 334 328 319 304 289 280 275 270 263 257 252 249 246 243 238 232 228 225 217 210 217 220 218 217 215 213 214 218 221 217 214 222 226 216 216 213 197 205 220 231 245 223 181 199 222 206 188 194 206 204 198 198 196 193 195 195 192 192 197 204 204 200 198 202 209 213 215 217 221 228 234 233 233 235 236 241 245 248 252
344 344 344 344 344 343 340 335 328 321 315 300 282 274 269 262 255 251 246 240 238 235 232 232 223 212 216 220 219 221 221 220 221 221 219 215 211 215 221 217 214 211 200 199 208 213 220 206 165 183 223 242 204 197 201 196 194 199 199 196 197 199 201 200 198 201 203 204 205 208 210 206 204 208 212 220 225 221 221 227 226 226 232 237 244
347 347 347 346 346 344 344 342 334 330 333 325 301 283 274 268 265 258 248 242 243 239 233 233 228 217 216 216 216 220 222 221 222 218 213 210 209 213 219 219 215 213 210 207 205 205 205 190 169 182 201 221 217 211 204 195 195 199 201 198 198 208 213 209 212 207 195 198 206 210 214 204 195 205 217 210 199 194 199 210 209 204 209 222 243
349 348 348 348 347 346 346 346 341 336 335 329 321 310 290 273 268 264 254 248 245 237 230 232 232 228 226 219 209 212 217 216 213 211 209 207 207 209 212 214 214 215 218 215 209 207 202 186 177 187 191 197 208 214 208 202 199 197 200 199 196 209 217 211 219 210 183 187 198 204 218 213 194 204 216 165 152 171 178 184 190 190 199 225 247
351 351 349 349 349 349 347 345 342 341 338 329 322 320 311 292 277 268 260 252 243 232 229 234 235 234 233 227 215 212 213 212 207 200 199 200 202 205 208 211 212 211 215 217 216 217 210 196 196 199 194 197 204 205 203 207 202 193 197 198 192 203 211 194 185 173 164 177 190 196 219 220 197 202 202 148 141 161 163 165 183 196 218 239 246
355 353 352 351 350 350 350 348 344 342 342 337 329 321 313 305 294 282 273 262 250 238 231 229 230 230 228 225 225 220 210 208 204 191 182 189 197 201 202 201 199 203 208 211 215 216 209 207 210 202 191 194 199 204 214 225 214 195 191 188 180 181 178 142 125 130 144 169 189 199 223 228 208 210 204 171 169 166 154 162 190 200 216 232 241
359 358 358 357 355 352 353 353 349 345 343 342 338 328 317 309 300 290 283 271 256 243 234 231 231 230 223 222 228 221 203 199 204 194 181 182 191 195 190 178 171 182 196 202 209 209 201 204 211 202 191 193 194 198 203 204 199 191 184 183 182 179 175 158 139 135 145 166 181 191 222 238 221 229 213 173 171 163 154 158 148 119 95 51 33
1 1 2 2 1 358 357 357 355 351 349 348 344 335 326 318 308 295 286 273 258 243 234 235 230 211 204 212 218 213 197 188 194 191 180 178 188 193 180 160 147 155 182 195 201 202 196 198 205 202 197 197 190 186 187 186 187 186 180 176 175 175 173 167 158 152 150 165 186 190 177 137 193 217 225 181 164 162 164 155 119 86 70 53 40
2 2 2 3 4 3 1 1 359 356 355 355 351 343 334 325 317 306 291 272 255 236 216 207 186 162 167 187 201 204 200 187 181 178 173 174 186 190 174 156 141 136 158 175 177 177 176 178 184 190 191 189 182 179 183 187 186 180 180 183 183 183 185 179 166 153 136 138 174 181 161 125 179 210 233 213 191 177 167 153 126 90 80 51 32
0 1 2 3 4 6 4 3 3 2 1 2 360 354 343 331 323 315 299 271 242 212 180 161 143 143 157 170 183 193 196 190 180 176 174 175 178 174 162 153 146 140 144 152 153 154 156 154 155 160 160 158 163 166 169 174 170 154 142 160 179 191 199 183 157 145 136 133 156 163 154 128 167 171 173 260 247 192 165 161 157 161 156 70 14